TimeMDT,TemperatureF,Dew PointF,Humidity,Sea Level PressureIn,VisibilityMPH,Wind Direction,Wind SpeedMPH,Gust SpeedMPH,PrecipitationIn,Events,Conditions,WindDirDegrees,DateUTC
12:10 AM,53.6,51.8,94,30.32,9.0,SSE,4.6,-,N/A,,Overcast,150,2013-09-11 06:10:00
12:53 AM,55.0,52.0,89,30.07,10.0,SE,10.4,-,N/A,,Overcast,130,2013-09-11 06:53:00
1:27 AM,55.4,51.8,88,30.32,10.0,SE,6.9,-,N/A,,Overcast,140,2013-09-11 07:27:00
1:53 AM,55.0,51.1,86,30.08,8.0,SSE,9.2,-,N/A,,Overcast,150,2013-09-11 07:53:00
2:03 AM,53.6,51.8,94,30.32,8.0,SE,9.2,-,N/A,,Overcast,140,2013-09-11 08:03:00
2:12 AM,55.4,51.8,88,30.32,8.0,SE,11.5,-,N/A,,Overcast,140,2013-09-11 08:12:00
2:53 AM,54.0,51.1,90,30.07,6.0,ESE,8.1,-,0.00,,Overcast,120,2013-09-11 08:53:00
3:14 AM,53.6,51.8,94,30.32,4.0,ESE,5.8,-,0.01,Rain,Light Rain,120,2013-09-11 09:14:00
3:53 AM,53.1,52.0,96,30.08,6.0,ESE,4.6,-,0.01,Rain,Light Rain,120,2013-09-11 09:53:00
4:53 AM,53.1,52.0,96,30.07,10.0,Calm,Calm,-,0.02,,Overcast,0,2013-09-11 10:53:00
5:53 AM,54.0,52.0,93,30.08,6.0,SE,8.1,-,0.00,Rain,Light Rain,140,2013-09-11 11:53:00
6:00 AM,53.6,51.8,94,30.32,5.0,SE,8.1,-,0.00,Rain,Light Rain,140,2013-09-11 12:00:00
6:20 AM,53.6,53.6,100,30.33,5.0,SSE,6.9,-,0.00,Rain,Light Rain,150,2013-09-11 12:20:00
6:32 AM,53.6,53.6,100,30.33,3.0,SSE,5.8,-,0.01,Rain,Light Rain,150,2013-09-11 12:32:00
6:53 AM,53.1,53.1,100,30.09,3.0,ESE,4.6,-,0.03,Rain,Light Rain,120,2013-09-11 12:53:00
7:53 AM,54.0,52.0,93,30.11,4.0,Calm,Calm,-,0.01,Rain,Light Rain,0,2013-09-11 13:53:00
8:02 AM,53.6,53.6,100,30.34,3.0,Calm,Calm,-,0.01,Rain,Light Rain,0,2013-09-11 14:02:00
8:17 AM,53.6,53.6,100,30.34,2.5,NNE,4.6,-,0.01,Rain,Light Rain,20,2013-09-11 14:17:00
8:40 AM,53.6,53.6,100,30.34,2.5,ENE,4.6,-,0.03,Rain,Light Rain,70,2013-09-11 14:40:00
8:49 AM,53.6,53.6,100,30.34,3.0,East,6.9,-,0.04,Rain,Light Rain,90,2013-09-11 14:49:00
8:53 AM,54.0,52.0,93,30.11,2.5,East,6.9,-,0.04,Rain,Light Rain,90,2013-09-11 14:53:00
8:55 AM,53.6,51.8,94,30.34,3.0,East,6.9,-,0.00,Rain,Light Rain,100,2013-09-11 14:55:00
8:57 AM,53.6,51.8,94,30.34,2.5,East,5.8,-,0.01,Rain,Light Rain,100,2013-09-11 14:57:00
9:15 AM,53.6,51.8,94,30.35,1.8,East,6.9,-,0.05,Rain,Rain,90,2013-09-11 15:15:00
9:25 AM,53.6,51.8,94,30.35,2.0,East,5.8,-,0.07,Rain,Rain,80,2013-09-11 15:25:00
9:40 AM,53.6,51.8,94,30.35,1.5,ENE,6.9,-,0.10,Rain,Rain,70,2013-09-11 15:40:00
9:50 AM,53.6,51.8,94,30.35,2.5,ENE,8.1,-,0.11,Rain,Light Rain,60,2013-09-11 15:50:00
9:53 AM,54.0,52.0,93,30.12,3.0,ENE,6.9,-,0.11,Rain,Light Rain,60,2013-09-11 15:53:00
10:53 AM,55.0,53.1,93,30.12,5.0,ENE,11.5,-,0.03,Rain,Light Rain,60,2013-09-11 16:53:00
11:53 AM,57.9,53.1,84,30.11,10.0,East,10.4,-,0.00,,Mostly Cloudy,80,2013-09-11 17:53:00
12:01 PM,57.2,53.6,88,30.35,10.0,East,10.4,-,N/A,,Overcast,80,2013-09-11 18:01:00
12:53 PM,59.0,53.1,81,30.10,10.0,East,11.5,-,N/A,,Overcast,100,2013-09-11 18:53:00
1:53 PM,57.9,53.1,84,30.09,10.0,East,12.7,-,N/A,,Overcast,80,2013-09-11 19:53:00
2:10 PM,57.2,51.8,82,30.35,10.0,East,13.8,-,0.00,Rain,Light Rain,90,2013-09-11 20:10:00
2:53 PM,57.9,53.1,84,30.10,10.0,East,12.7,-,0.01,Rain,Light Rain,80,2013-09-11 20:53:00
3:53 PM,57.9,52.0,81,30.10,10.0,ENE,13.8,-,0.00,,Overcast,70,2013-09-11 21:53:00
4:38 PM,55.4,51.8,88,30.35,10.0,ENE,15.0,-,N/A,,Overcast,60,2013-09-11 22:38:00
4:49 PM,55.4,51.8,88,30.35,10.0,ENE,18.4,-,N/A,,Overcast,70,2013-09-11 22:49:00
4:53 PM,55.9,52.0,87,30.11,10.0,ENE,16.1,-,N/A,,Overcast,60,2013-09-11 22:53:00
5:29 PM,55.4,51.8,88,30.35,10.0,ENE,15.0,-,N/A,,Overcast,70,2013-09-11 23:29:00
5:37 PM,55.4,51.8,88,30.35,9.0,ENE,15.0,-,0.00,Rain,Light Rain,70,2013-09-11 23:37:00
5:53 PM,54.0,51.1,90,30.12,2.0,ENE,13.8,-,0.01,Rain,Rain,60,2013-09-11 23:53:00
6:04 PM,53.6,51.8,94,30.35,5.0,ENE,13.8,-,0.01,Rain,Light Rain,60,2013-09-12 00:04:00
6:53 PM,53.1,51.1,93,30.14,10.0,ENE,11.5,-,0.01,,Overcast,60,2013-09-12 00:53:00
7:53 PM,52.0,50.0,93,30.15,10.0,ENE,9.2,-,0.02,,Overcast,60,2013-09-12 01:53:00
8:31 PM,51.8,51.8,100,30.38,2.5,ENE,8.1,-,0.01,Rain,Light Rain,70,2013-09-12 02:31:00
8:42 PM,51.8,50.0,94,30.38,4.0,ENE,9.2,-,0.02,Rain,Light Rain,60,2013-09-12 02:42:00
8:53 PM,52.0,50.0,93,30.17,8.0,ENE,10.4,-,0.02,Rain,Light Rain,70,2013-09-12 02:53:00
9:14 PM,51.8,51.8,100,30.39,2.5,ENE,5.8,-,0.02,Rain,Light Rain,70,2013-09-12 03:14:00
9:35 PM,53.6,51.8,94,30.39,3.0,ENE,3.5,-,0.04,Rain,Light Rain,70,2013-09-12 03:35:00
9:42 PM,53.6,51.8,94,30.39,4.0,ENE,6.9,-,0.05,Rain,Light Rain,70,2013-09-12 03:42:00
9:53 PM,53.1,51.1,93,30.17,10.0,East,10.4,-,0.05,Rain,Light Rain,80,2013-09-12 03:53:00
10:32 PM,53.6,51.8,94,30.39,7.0,ESE,6.9,-,0.00,Rain,Light Rain,110,2013-09-12 04:32:00
10:53 PM,53.1,51.1,93,30.17,10.0,East,10.4,-,0.01,Rain,Light Rain,100,2013-09-12 04:53:00
11:27 PM,53.6,51.8,94,30.39,10.0,East,5.8,-,0.00,Rain,Light Rain,80,2013-09-12 05:27:00
11:53 PM,53.1,51.1,93,30.15,10.0,East,5.8,-,0.00,Rain,Light Rain,80,2013-09-12 05:53:00